User: anonymous   Login
Location: Unspecified
(0.0000°N, 0.0000°E)
Time: 01:46:12
(UTC+02:00)
Language:

ARIANE 5 R/B - Orbit

View from above orbital plane
View from above orbital plane
View from above satellite
View from above satellite

Ground track
Ground track

The orbit data is extracted from the following two-line orbital elements,

1 28379U 04027B   17292.20175074 -.00000246 +00000-0 +19849-2 0  9995
2 28379 007.0863 289.6323 7291294 152.0484 343.0512 02.07930274100706
Epoch (UTC): 19 October 2017 04:50:31
Eccentricity: 0.7291294
inclination: 7.0863°
perigee height: 645 km
apogee height: 38456 km
right ascension of ascending node: 289.6323°
argument of perigee: 152.0484°
revolutions per day: 2.07930274
mean anomaly at epoch: 343.0512°
orbit number at epoch: 10070

The dashed part of the orbit path shows where the satellite is in the earth's shadow,  

DLR